TimeCST,TemperatureF,Dew PointF,Humidity,Sea Level PressureIn,VisibilityMPH,Wind Direction,Wind SpeedMPH,Gust SpeedMPH,PrecipitationIn,Events,Conditions,WindDirDegrees,DateUTC
12:15 AM,24.8,1.4,36,30.03,10.0,WNW,3.5,27.6,N/A,,Clear,300,2013-02-26 06:15:00
12:35 AM,26.6,5.0,40,30.02,10.0,NW,6.9,-,N/A,,Clear,310,2013-02-26 06:35:00
12:55 AM,26.6,5.0,40,30.01,10.0,NNW,9.2,-,N/A,,Clear,330,2013-02-26 06:55:00
1:15 AM,26.6,5.0,40,30.00,10.0,NW,9.2,-,N/A,,Clear,320,2013-02-26 07:15:00
1:35 AM,26.6,3.2,37,30.00,10.0,NNW,9.2,-,N/A,,Clear,340,2013-02-26 07:35:00
1:55 AM,26.6,5.0,40,29.99,10.0,NNW,5.8,-,N/A,,Clear,330,2013-02-26 07:55:00
2:15 AM,21.2,1.4,42,29.99,10.0,Calm,Calm,-,N/A,,Clear,0,2013-02-26 08:15:00
2:35 AM,21.2,3.2,46,29.98,10.0,Calm,Calm,-,N/A,,Clear,0,2013-02-26 08:35:00
2:55 AM,21.2,1.4,42,29.97,10.0,West,3.5,-,N/A,,Clear,280,2013-02-26 08:55:00
3:15 AM,24.8,5.0,43,29.97,10.0,WNW,4.6,-,N/A,,Clear,290,2013-02-26 09:15:00
3:35 AM,17.6,1.4,49,29.97,10.0,Calm,Calm,-,N/A,,Clear,0,2013-02-26 09:35:00
3:55 AM,19.4,1.4,46,29.96,10.0,WNW,5.8,-,N/A,,Clear,290,2013-02-26 09:55:00
4:15 AM,21.2,5.0,50,29.95,10.0,West,10.4,-,N/A,,Clear,270,2013-02-26 10:15:00
4:35 AM,17.6,-0.4,45,29.95,10.0,Calm,Calm,-,N/A,,Clear,0,2013-02-26 10:35:00
4:55 AM,17.6,1.4,49,29.95,10.0,West,3.5,-,N/A,,Clear,270,2013-02-26 10:55:00
5:15 AM,17.6,-0.4,45,29.95,10.0,Calm,Calm,-,N/A,,Clear,0,2013-02-26 11:15:00
5:35 AM,21.2,5.0,50,29.96,10.0,West,8.1,-,N/A,,Clear,260,2013-02-26 11:35:00
5:55 AM,24.8,3.2,40,29.96,10.0,West,10.4,-,N/A,,Clear,260,2013-02-26 11:55:00
6:15 AM,26.6,6.8,43,29.97,10.0,West,9.2,-,N/A,,Clear,280,2013-02-26 12:15:00
6:35 AM,26.6,3.2,37,29.97,10.0,WNW,8.1,-,N/A,,Clear,300,2013-02-26 12:35:00
6:55 AM,23.0,1.4,39,29.95,10.0,WNW,9.2,-,N/A,,Clear,300,2013-02-26 12:55:00
7:15 AM,21.2,3.2,46,29.96,10.0,WNW,9.2,-,N/A,,Clear,300,2013-02-26 13:15:00
7:35 AM,23.0,1.4,39,29.97,10.0,WNW,6.9,-,N/A,,Clear,300,2013-02-26 13:35:00
7:55 AM,23.0,3.2,43,29.97,10.0,SW,3.5,-,N/A,,Clear,220,2013-02-26 13:55:00
8:15 AM,26.6,3.2,37,29.98,10.0,South,4.6,-,N/A,,Clear,180,2013-02-26 14:15:00
8:35 AM,30.2,6.8,37,29.98,10.0,Calm,Calm,-,N/A,,Clear,0,2013-02-26 14:35:00
8:55 AM,32.0,6.8,35,29.99,10.0,Calm,Calm,-,N/A,,Clear,0,2013-02-26 14:55:00
9:15 AM,35.6,8.6,33,29.99,10.0,Calm,Calm,-,N/A,,Clear,0,2013-02-26 15:15:00
9:35 AM,39.2,8.6,28,30.00,10.0,South,4.6,-,N/A,,Clear,170,2013-02-26 15:35:00
9:55 AM,42.8,8.6,25,30.00,10.0,South,5.8,-,N/A,,Clear,190,2013-02-26 15:55:00
10:15 AM,44.6,8.6,23,30.00,10.0,South,6.9,-,N/A,,Clear,190,2013-02-26 16:15:00
10:35 AM,46.4,10.4,23,30.00,10.0,SW,6.9,-,N/A,,Clear,220,2013-02-26 16:35:00
10:55 AM,48.2,10.4,22,29.99,10.0,SSW,6.9,-,N/A,,Clear,200,2013-02-26 16:55:00
11:15 AM,50.0,8.6,19,29.99,10.0,South,10.4,-,N/A,,Clear,190,2013-02-26 17:15:00
11:35 AM,51.8,8.6,18,29.98,10.0,WSW,10.4,-,N/A,,Clear,240,2013-02-26 17:35:00
11:55 AM,55.4,8.6,15,29.98,10.0,SW,16.1,20.7,N/A,,Clear,220,2013-02-26 17:55:00
12:15 PM,55.4,6.8,14,29.97,10.0,WSW,18.4,24.2,N/A,,Clear,250,2013-02-26 18:15:00
12:35 PM,55.4,5.0,13,29.96,10.0,WSW,18.4,23.0,N/A,,Clear,250,2013-02-26 18:35:00
12:55 PM,57.2,5.0,12,29.95,10.0,WSW,18.4,26.5,N/A,,Clear,240,2013-02-26 18:55:00
1:15 PM,57.2,3.2,11,29.94,10.0,West,17.3,21.9,N/A,,Clear,260,2013-02-26 19:15:00
1:35 PM,57.2,3.2,11,29.93,10.0,West,13.8,24.2,N/A,,Clear,260,2013-02-26 19:35:00
1:55 PM,57.2,3.2,11,29.92,10.0,West,13.8,21.9,N/A,,Clear,260,2013-02-26 19:55:00
2:15 PM,59.0,3.2,11,29.91,10.0,WSW,13.8,21.9,N/A,,Clear,240,2013-02-26 20:15:00
2:35 PM,59.0,3.2,11,29.90,10.0,SW,13.8,20.7,N/A,,Clear,220,2013-02-26 20:35:00
2:55 PM,60.8,5.0,11,29.90,10.0,WSW,12.7,19.6,N/A,,Clear,240,2013-02-26 20:55:00
3:15 PM,60.8,5.0,11,29.89,10.0,West,12.7,-,N/A,,Clear,260,2013-02-26 21:15:00
3:35 PM,60.8,5.0,11,29.89,10.0,West,17.3,21.9,N/A,,Clear,260,2013-02-26 21:35:00
3:55 PM,60.8,5.0,11,29.89,10.0,West,17.3,25.3,N/A,,Clear,270,2013-02-26 21:55:00
4:15 PM,59.0,3.2,11,29.89,10.0,WSW,15.0,-,N/A,,Clear,240,2013-02-26 22:15:00
4:35 PM,60.8,5.0,11,29.89,10.0,WSW,16.1,-,N/A,,Clear,240,2013-02-26 22:35:00
4:55 PM,60.8,5.0,11,29.89,10.0,WSW,18.4,-,N/A,,Clear,240,2013-02-26 22:55:00
5:15 PM,59.0,3.2,11,29.89,10.0,SW,13.8,18.4,N/A,,Clear,230,2013-02-26 23:15:00
5:35 PM,57.2,3.2,11,29.90,10.0,WSW,15.0,18.4,N/A,,Clear,240,2013-02-26 23:35:00
5:55 PM,57.2,3.2,11,29.90,10.0,SW,12.7,-,N/A,,Clear,230,2013-02-26 23:55:00
6:15 PM,55.4,1.4,11,29.91,10.0,WSW,11.5,-,N/A,,Clear,240,2013-02-27 00:15:00
6:35 PM,53.6,-0.4,11,29.91,10.0,SSW,6.9,-,N/A,,Clear,200,2013-02-27 00:35:00
6:55 PM,51.8,-0.4,12,29.91,10.0,South,6.9,-,N/A,,Clear,170,2013-02-27 00:55:00
7:15 PM,48.2,-2.2,12,29.91,10.0,South,4.6,-,N/A,,Clear,180,2013-02-27 01:15:00
7:35 PM,44.6,-5.8,12,29.92,10.0,SSW,11.5,-,N/A,,Clear,210,2013-02-27 01:35:00
7:55 PM,44.6,-2.2,14,29.92,10.0,SSW,10.4,-,N/A,,Clear,210,2013-02-27 01:55:00
8:15 PM,44.6,-2.2,14,29.93,10.0,South,6.9,-,N/A,,Clear,190,2013-02-27 02:15:00
8:35 PM,42.8,-2.2,15,29.93,10.0,SSW,3.5,-,N/A,,Clear,210,2013-02-27 02:35:00
8:55 PM,39.2,-2.2,17,29.94,10.0,Calm,Calm,-,N/A,,Clear,0,2013-02-27 02:55:00
9:15 PM,37.4,-5.8,16,29.95,10.0,NE,9.2,-,N/A,,Clear,40,2013-02-27 03:15:00
9:35 PM,37.4,-2.2,19,29.96,10.0,NE,8.1,-,N/A,,Clear,50,2013-02-27 03:35:00
9:55 PM,37.4,-2.2,19,29.97,10.0,ENE,4.6,-,N/A,,Clear,70,2013-02-27 03:55:00
10:15 PM,37.4,-0.4,20,29.97,10.0,Calm,Calm,-,N/A,,Clear,0,2013-02-27 04:15:00
10:55 PM,35.6,-2.2,20,29.99,10.0,NNE,8.1,-,N/A,,Clear,30,2013-02-27 04:55:00
11:15 PM,35.6,-0.4,22,29.98,10.0,SE,3.5,-,N/A,,Clear,130,2013-02-27 05:15:00
11:35 PM,35.6,-0.4,22,29.98,10.0,South,3.5,-,N/A,,Clear,190,2013-02-27 05:35:00
11:55 PM,33.8,-2.2,22,29.98,10.0,Calm,Calm,-,N/A,,Clear,0,2013-02-27 05:55:00